Tracking 23114 objects as of 14-May-2021
HD Live streaming from Space Station
objects crossing your sky now

CZ-2C DEB

Track CZ-2C DEB now!
10-day predictions


NORAD ID: 39204
Int'l Code: 2013-035C
Perigee: 638.8 km
Apogee: 769.7 km
Inclination: 98.4 °
Period: 98.7 minutes
Semi major axis: 7075 km
RCS: Unknown
Launch date: July 15, 2013
Source: People's Republic of China (PRC)
Launch site: Jiuquan Satellite Launch Center, China (JSC)

Note: This is SATELLITE DEBRIS
aabbcc
Your satellite tracking list
Your tracking list is empty




NASA's NSSDC Master Catalog

Two Line Element Set (TLE):
1 39204U 13035C   21133.51672891  .00000652  00000-0  14206-3 0  9998
2 39204  98.3952 347.1442 0092513  54.4429 306.5350 14.58788407415913
Source of the keplerian elements: AFSPC